Location: Krasnoyarskiy Pitomnik
(51.1333°N, 71.6167°E)
Time: 11:57:58
(UTC+00:00)

Transit 2A - Pass Details

Date: 22 April 2024
Orbit: 593 x 958 km, 66.7° (Epoch: 30 May)

Event Time Altitude Azimuth Distance (km) Brightness Sun altitude
Rises 03:46:15 0° 270° (W) 2,927 8.6 33.3°
Reaches altitude 10° 03:48:59 10° 287° (WNW) 2,070 7.8 33.7°
Maximum altitude 03:52:28 20° 336° (NNW) 1,565 7.4 34.2°
Drops below altitude 10° 03:56:12 10° 24° (NNE) 2,233 8.5 34.7°
Sets 03:59:18 0° 41° (NE) 3,235 9.4 35.1°
